This demonstration page uses our WeatherBlox Daily Observations layout. Learn more.

Left ArrowRight Arrow

Hourly Observations for May 3, 2019

Temp ( °F °C ) Dew Point ( °F °C ) Humidity (%) Winds ( mph kmh ) Pressure ( in mb ) Visibility ( mi km ) Precip ( " mm )
12:52 am 00:52 Mostly Cloudy 52 11.1 37 2.8 57 57 SE 6 9 30.09 1019 10 16 0.00 0.00
1:52 am 01:52 Mostly Cloudy 49 9.4 38 3.3 66 66 Calm 30.09 1019 10 16 0.00 0.00
2:52 am 02:52 Partly Cloudy 50 10 39 3.9 66 66 Calm 30.07 1018 10 16 0.00 0.00
3:52 am 03:52 Cloudy 49 9.4 39 3.9 69 69 Calm 30.06 1018 10 16 0.00 0.00
4:52 am 04:52 Cloudy 50 10 40 4.4 68 68 Calm 30.07 1018 10 16 0.00 0.00
5:52 am 05:52 Mostly Cloudy 50 10 40 4.4 68 68 SSE 6 9 30.06 1018 10 16 0.00 0.00
6:52 am 06:52 Cloudy 49 9.4 41 5 74 74 SSE 6 9 30.06 1018 10 16 0.00 0.00
7:52 am 07:52 Cloudy 51 10.6 41 5 69 69 SSE 6 9 30.04 1017 10 16 0.00 0.00
8:52 am 08:52 Cloudy 53 11.7 43 6.1 69 69 ESE 5 7 30.06 1018 10 16 0.00 0.00
9:52 am 09:52 Cloudy 54 12.2 44 6.7 69 69 SE 6 9 30.08 1019 10 16 0.00 0.00
10:52 am 10:52 Mostly Cloudy 55 12.8 45 7.2 69 69 ESE 7 11 30.07 1018 10 16 0.00 0.00
11:52 am 11:52 Mostly Cloudy 57 13.9 45 7.2 64 64 SSE 7 11 30.08 1019 10 16 0.00 0.00
12:52 pm 12:52 Mostly Cloudy 61 16.1 44 6.7 54 54 SSE 8 13 30.07 1018 10 16 0.00 0.00
1:52 pm 13:52 Partly Cloudy 63 17.2 44 6.7 50 50 VRB 7 11 30.05 1018 10 16 0.00 0.00
2:52 pm 14:52 Partly Cloudy 64 17.8 44 6.7 48 48 SSE 12 19 30.03 1017 10 16 0.00 0.00
3:52 pm 15:52 Partly Cloudy 67 19.4 42 5.6 41 41 SSE 16 26 30.00 1016 10 16 0.00 0.00
4:52 pm 16:52 Mostly Cloudy 67 19.4 41 5 39 39 S 14 22 29.97 1015 10 16 0.00 0.00
5:52 pm 17:52 Partly Cloudy 65 18.3 41 5 42 42 S 13 20 29.96 1015 10 16 0.00 0.00
6:52 pm 18:52 Mostly Sunny 64 17.8 40 4.4 41 41 SE 15 24 29.96 1015 10 16 0.00 0.00
7:52 pm 19:52 Mostly Sunny 63 17.2 41 5 45 45 S 14 22 29.95 1014 10 16 0.00 0.00
8:52 pm 20:52 Partly Cloudy 58 14.4 42 5.6 56 56 SSE 12 19 29.96 1015 10 16 0.00 0.00
9:52 pm 21:52 Mostly Cloudy 58 14.4 43 6.1 58 58 SSE 9 15 30.00 1016 10 16 0.00 0.00
10:52 pm 22:52 Mostly Cloudy 57 13.9 42 5.6 58 58 SSE 8 13 30.00 1016 10 16 0.00 0.00
11:52 pm 23:52 Cloudy 56 13.3 42 5.6 60 60 SE 9 15 30.00 1016 10 16 0.00 0.00

Powered by AerisWeather